• In Latvia
  • List of Countries
  • For 7 days
  • Water Temperature
  • Satellite Maps
  • Weather Map
  • Weather Widgets
  • user-avatar
    Login

    Hourly Weather Malanje

    Today, 20 January, Friday

    Time Temperature Precipitation Wind Pressure Humidity
    00:00 +18°C° 0 mm 2 mps 665 mmHg 95%
    01:00 +18°C° 0 mm 2 mps 665 mmHg 97%
    02:00 +18°C° 0.1 mm 2 mps 665 mmHg 97%
    03:00 +19°C° 0.1 mm 1 mps 665 mmHg 98%
    04:00 +18°C° 0.1 mm 1 mps 665 mmHg 98%
    05:00 +19°C° 0 mm 1 mps 665 mmHg 97%
    06:00 +20°C° 0 mm 1 mps 665 mmHg 95%
    07:00 +21°C° 0 mm 1 mps 666 mmHg 92%
    08:00 +23°C° 0 mm 1 mps 666 mmHg 81%
    09:00 +26°C° 0 mm 1 mps 667 mmHg 71%
    10:00 +28°C° 0 mm 1 mps 667 mmHg 61%
    11:00 +29°C° 0.1 mm 1 mps 667 mmHg 56%
    12:00 +30°C° 0.1 mm 1 mps 666 mmHg 51%
    13:00 +30°C° 0 mm 2 mps 666 mmHg 47%
    14:00 +30°C° 0.1 mm 2 mps 665 mmHg 51%
    15:00 +30°C° 0.1 mm 2 mps 665 mmHg 54%
    16:00 +29°C° 0.1 mm 2 mps 664 mmHg 58%
    17:00 +27°C° 0.1 mm 2 mps 664 mmHg 63%
    18:00 +25°C° 0.1 mm 2 mps 664 mmHg 69%
    19:00 +23°C° 0.1 mm 2 mps 664 mmHg 75%
    20:00 +21°C° 0.1 mm 2 mps 664 mmHg 77%
    21:00 +21°C° 0.1 mm 2 mps 664 mmHg 79%
    22:00 +20°C° 0.1 mm 2 mps 665 mmHg 81%
    23:00 +19°C° 0.1 mm 2 mps 664 mmHg 84%

    Tomorrow, 21 January, Saturday

    Time Temperature Precipitation Wind Pressure Humidity
    00:00 +19°C° 0.1 mm 2 mps 664 mmHg 87%
    01:00 +18°C° 0.1 mm 2 mps 664 mmHg 90%
    02:00 +18°C° 0 mm 2 mps 664 mmHg 91%
    03:00 +17°C° 0 mm 2 mps 664 mmHg 93%
    04:00 +17°C° 0 mm 2 mps 663 mmHg 94%
    05:00 +18°C° 0 mm 2 mps 664 mmHg 92%
    06:00 +19°C° 0 mm 1 mps 664 mmHg 90%
    07:00 +20°C° 0 mm 1 mps 665 mmHg 88%
    08:00 +21°C° 0 mm 2 mps 665 mmHg 77%
    09:00 +25°C° 0 mm 2 mps 666 mmHg 66%
    10:00 +28°C° 0 mm 2 mps 666 mmHg 55%
    11:00 +29°C° 0 mm 2 mps 666 mmHg 50%
    12:00 +30°C° 0 mm 2 mps 666 mmHg 46%
    13:00 +31°C° 0 mm 3 mps 666 mmHg 41%
    14:00 +31°C° 0 mm 3 mps 665 mmHg 44%
    15:00 +30°C° 0 mm 3 mps 664 mmHg 47%
    16:00 +30°C° 0 mm 3 mps 664 mmHg 50%
    17:00 +28°C° 0.2 mm 3 mps 664 mmHg 57%
    18:00 +25°C° 0.2 mm 2 mps 663 mmHg 64%
    19:00 +23°C° 0.2 mm 2 mps 663 mmHg 72%
    20:00 +21°C° 0 mm 2 mps 664 mmHg 74%
    21:00 +20°C° 0 mm 2 mps 664 mmHg 77%
    22:00 +19°C° 0 mm 2 mps 664 mmHg 79%
    23:00 +19°C° 0.1 mm 2 mps 664 mmHg 83%

    Day after tomorrow, 22 January, Sunday

    Time Temperature Precipitation Wind Pressure Humidity
    00:00 +19°C° 0.1 mm 2 mps 664 mmHg 87%
    01:00 +18°C° 0.1 mm 2 mps 664 mmHg 91%
    02:00 +18°C° 0.2 mm 2 mps 664 mmHg 92%
    03:00 +18°C° 0.2 mm 2 mps 664 mmHg 93%
    04:00 +17°C° 0.2 mm 2 mps 664 mmHg 95%
    05:00 +18°C° 0.2 mm 2 mps 664 mmHg 94%
    06:00 +18°C° 0.2 mm 2 mps 665 mmHg 94%
    07:00 +18°C° 0.2 mm 2 mps 665 mmHg 94%
    08:00 +19°C° 0.1 mm 2 mps 665 mmHg 89%
    09:00 +20°C° 0.1 mm 2 mps 666 mmHg 84%
    10:00 +21°C° 0.1 mm 2 mps 666 mmHg 79%
    11:00 +23°C° 0 mm 2 mps 666 mmHg 72%
    12:00 +25°C° 0 mm 3 mps 665 mmHg 64%
    13:00 +26°C° 0 mm 3 mps 665 mmHg 57%
    14:00 +26°C° 0 mm 3 mps 664 mmHg 56%
    15:00 +26°C° 0 mm 3 mps 664 mmHg 56%
    16:00 +26°C° 0 mm 3 mps 663 mmHg 55%
    17:00 +24°C° 0 mm 3 mps 663 mmHg 62%
    18:00 +21°C° 0 mm 2 mps 663 mmHg 69%
    19:00 +19°C° 0 mm 2 mps 663 mmHg 76%
    20:00 +19°C° 0 mm 2 mps 663 mmHg 76%
    21:00 +18°C° 0 mm 2 mps 664 mmHg 77%
    22:00 +18°C° 0 mm 2 mps 664 mmHg 77%
    23:00 +18°C° 0 mm 2 mps 664 mmHg 78%

    23 January, Monday

    Time Temperature Precipitation Wind Pressure Humidity
    00:00 +18°C° 0 mm 2 mps 664 mmHg 78%
    01:00 +18°C° 0 mm 3 mps 664 mmHg 79%
    02:00 +18°C° 0 mm 3 mps 664 mmHg 84%
    03:00 +17°C° 0 mm 3 mps 663 mmHg 89%
    04:00 +17°C° 0 mm 3 mps 663 mmHg 94%
    05:00 +17°C° 0 mm 3 mps 664 mmHg 93%
    06:00 +17°C° 0 mm 3 mps 664 mmHg 93%
    07:00 +18°C° 0 mm 3 mps 665 mmHg 93%
    08:00 +19°C° 0 mm 3 mps 666 mmHg 86%
    09:00 +21°C° 0 mm 4 mps 666 mmHg 79%
    10:00 +23°C° 0 mm 4 mps 667 mmHg 72%
    11:00 +25°C° 0 mm 4 mps 666 mmHg 65%
    12:00 +27°C° 0 mm 4 mps 666 mmHg 59%
    13:00 +29°C° 0 mm 4 mps 665 mmHg 53%
    14:00 +28°C° 0 mm 4 mps 665 mmHg 54%
    15:00 +28°C° 0 mm 4 mps 664 mmHg 56%
    16:00 +28°C° 0 mm 4 mps 663 mmHg 57%
    17:00 +26°C° 0 mm 4 mps 664 mmHg 64%
    18:00 +23°C° 0 mm 4 mps 664 mmHg 70%
    19:00 +21°C° 0 mm 3 mps 664 mmHg 76%
    20:00 +21°C° 0.2 mm 3 mps 665 mmHg 81%
    21:00 +20°C° 0.2 mm 3 mps 665 mmHg 85%
    22:00 +19°C° 0.2 mm 3 mps 666 mmHg 90%
    23:00 +19°C° 0 mm 3 mps 666 mmHg 92%

    24 January, Tuesday

    Time Temperature Precipitation Wind Pressure Humidity
    00:00 +18°C° 0 mm 3 mps 665 mmHg 93%
    01:00 +18°C° 0 mm 3 mps 665 mmHg 95%
    02:00 +18°C° 0 mm 2 mps 665 mmHg 96%
    03:00 +18°C° 0 mm 2 mps 664 mmHg 96%
    04:00 +18°C° 0 mm 2 mps 664 mmHg 97%
    05:00 +18°C° 0 mm 3 mps 665 mmHg 96%
    06:00 +18°C° 0 mm 3 mps 665 mmHg 95%
    07:00 +19°C° 0 mm 3 mps 666 mmHg 93%
    08:00 +20°C° 0 mm 3 mps 666 mmHg 84%
    09:00 +22°C° 0 mm 4 mps 667 mmHg 75%
    10:00 +25°C° 0 mm 4 mps 667 mmHg 66%
    11:00 +26°C° 0 mm 4 mps 667 mmHg 60%
    12:00 +28°C° 0 mm 5 mps 667 mmHg 54%
    13:00 +29°C° 0 mm 5 mps 666 mmHg 48%
    14:00 +29°C° 0 mm 5 mps 666 mmHg 49%
    15:00 +29°C° 0 mm 5 mps 665 mmHg 50%
    16:00 +29°C° 0 mm 5 mps 665 mmHg 51%
    17:00 +26°C° 0 mm 4 mps 665 mmHg 57%
    18:00 +23°C° 0 mm 4 mps 665 mmHg 64%
    19:00 +21°C° 0 mm 3 mps 665 mmHg 70%
    20:00 +21°C° 0 mm 3 mps 665 mmHg 73%
    21:00 +20°C° 0 mm 3 mps 665 mmHg 76%
    22:00 +19°C° 0 mm 3 mps 666 mmHg 79%
    23:00 +18°C° 0 mm 3 mps 665 mmHg 83%

    25 January, Wednesday

    Time Temperature Precipitation Wind Pressure Humidity
    00:00 +17°C° 0 mm 3 mps 665 mmHg 87%
    01:00 +17°C° 0 mm 3 mps 664 mmHg 90%
    02:00 +16°C° 0 mm 2 mps 664 mmHg 92%
    03:00 +16°C° 0 mm 2 mps 664 mmHg 93%
    04:00 +16°C° 0 mm 2 mps 664 mmHg 94%
    05:00 +16°C° 0 mm 2 mps 664 mmHg 92%
    06:00 +17°C° 0 mm 2 mps 665 mmHg 90%
    07:00 +18°C° 0 mm 2 mps 665 mmHg 88%
    08:00 +20°C° 0 mm 2 mps 666 mmHg 76%
    09:00 +24°C° 0 mm 3 mps 667 mmHg 63%
    10:00 +27°C° 0 mm 3 mps 667 mmHg 51%
    11:00 +28°C° 0 mm 4 mps 667 mmHg 48%
    12:00 +29°C° 0 mm 4 mps 667 mmHg 45%
    13:00 +30°C° 0 mm 5 mps 666 mmHg 42%
    14:00 +30°C° 0 mm 5 mps 666 mmHg 43%
    15:00 +30°C° 0 mm 5 mps 665 mmHg 45%
    16:00 +29°C° 0 mm 5 mps 665 mmHg 47%
    17:00 +27°C° 0 mm 4 mps 665 mmHg 54%
    18:00 +25°C° 0 mm 4 mps 665 mmHg 61%
    19:00 +22°C° 0 mm 3 mps 665 mmHg 67%
    20:00 +21°C° 0 mm 3 mps 665 mmHg 70%
    21:00 +20°C° 0 mm 3 mps 665 mmHg 73%
    22:00 +19°C° 0 mm 3 mps 666 mmHg 76%
    23:00 +19°C° 0 mm 3 mps 665 mmHg 82%
    Show more